Regional Weather Roundup
Issued by NWS Newport/Morehead, NC

Current Version | Previous Version | Graphics & Text | Print | Product List | Glossary Off
Versions: 1 2 3 4 5 6 7 8 9 10 11 12 13 14 15 16 17 18 19 20 21 22 23 24 25 26 27 28 29 30 31 32 33 34 35 36 37 38 39 40 41 42 43 44 45 46 47 48 49 50

000
ASUS42 KMHX 250625
RWRMHX
WEATHER ROUNDUP FOR EASTERN NORTH CAROLINA
NATIONAL WEATHER SERVICE NEWPORT/MOREHEAD CITY NC
200 AM EDT FRI MAY 25 2018

NOTE: "FAIR" INDICATES FEW OR NO CLOUDS BELOW 12,000 FEET
WITH NO SIGNIFICANT WEATHER AND/OR OBSTRUCTIONS TO VISIBILITY

NCZ015>017-031-032-045>047-102-103-250700-
NORTH COAST

CITY           SKY/WX    TMP DP  RH WIND       PRES   REMARKS
EDENTON        FAIR      62  60  93 CALM      30.16F
ELIZABETH CITY FAIR      64  64 100 CALM      30.15S
KITTY HAWK     FAIR      65  65 100 CALM      30.14S FOG
MANTEO         FAIR      62  61  97 CALM      30.16S

$$

NCZ045>047-081-094-103-104-250700-
CENTRAL COAST

CITY           SKY/WX    TMP DP  RH WIND       PRES   REMARKS
FRISCO         FAIR      66  58  75 NE5       30.14F

$$

NCZ095-097-098-100-101-250700-
SOUTHERN COAST

CITY           SKY/WX    TMP DP  RH WIND       PRES   REMARKS
BEAUFORT       FAIR      69  67  93 CALM      30.13F
CEDAR ISLAND   NOT AVBL
JACKSONVILLE   FAIR      67  64  90 CALM      30.13F
PINEY ISLAND   NOT AVBL
WILMINGTON     CLOUDY    69  67  93 NE3       30.12F


$$

NCZ011>013-027>030-043-044-078>080-089-090>093-098-250700-
COASTAL PLAIN

CITY           SKY/WX    TMP DP  RH WIND       PRES   REMARKS
AHOSKIE        FAIR      58  58 100 CALM      30.15F
CLINTON        FAIR      66  66 100 CALM      30.14F
ELIZABETHTOWN  FAIR      68  67  97 CALM      30.13F
GOLDSBORO      FAIR      65  62  89 CALM      30.13F
GREENVILLE     FAIR      63  61  94 CALM      30.16F
HAVELOCK       CLEAR     67  64  90 CALM      30.14F
KENANSVILLE    FAIR      63  61  94 CALM      30.14F FOG
KINSTON        NOT AVBL
NEW BERN       FAIR      62  61  96 CALM      30.15F
RICHLANDS      FAIR      63  63 100 CALM      30.14F
ROCKY MOUNT    FAIR      63  61  93 CALM      30.15F
WASHINGTON     FAIR      62  60  96 CALM      30.15F
WHITEVILLE     CLOUDY    70  69  96 CALM      30.12F

$$

AMZ130-135-150-152-154-156-158-170-250-252-270-ANZ085-086-088-633-658-670-250700-
MARINE OBSERVATIONS

STATION/POSITION TIME  TEMP    WIND        PRES    WAVE   SWELL
                       AIR SEA DIR/SP/G            HT/PER HT/PER
                 (UTC) (F)     (DEG/KT/KT) (MB)    (FT/S) (FT/S)
CHESAPEAKE LIGHT NOT AVBL
64 E VA BEACH    0550   65 67  130/  4/  4 1021.3    2/ 9   2/ 9
DUCK             0600   69 72  120/  3/  4 1020.5
2 E DUCK         0600      72                N/A     2/ 8
OREGON INLET     0548   67 74   90/  3/  5 1020.9
13E OREGON INLT  0548      70                N/A     2/ 7   2/ 7
HATTERAS CG      0600   69 76   70/  4/  5 1020.2
DIAMOND BUOY     0610   77 78  120/ 10/ 12 1020.5
CAPE LOOKOUT     0600           80/  6/  6 1020.4
BEAUFORT LAB     0600   71 78   50/  3/  4 1020.4
30 SE NEW RVR IN 0608   76     130/  8/ 10 1019.9
30 SE NEW RVR IN 0600      76                N/A     3/ 8
27 SE WRIGHTSVLE 0608   75 75  110/  8/ 12 1019.7
5 SE WRIGHTSVLE  0608   73 74  120/  6/ 10 1019.1
225 S CAPE HAT   0610      78   CALM  /  2 1019.1
41 SE CHARLESTON 0600           90/  6/  8 1018.7

$$




USA.gov is the U.S. government's official web portal to all federal, state and local government web resources and services.